Regional Weather Roundup
Issued by NWS Upton, NY

Current Version | Previous Version | Graphics & Text | Print | Product List | Glossary Off
Versions: 1 2 3 4 5 6 7 8 9 10 11 12 13 14 15 16 17 18 19 20 21 22 23 24 25 26 27 28

000
ASUS41 KOKX 202208
RWROKX

REGIONAL WEATHER ROUNDUP
NATIONAL WEATHER SERVICE NEW YORK NY
500 PM EST MON FEB 20 2017

NOTE: "FAIR" INDICATES FEW OR NO CLOUDS BELOW 12,000 FEET WITH NO
SIGNIFICANT WEATHER AND/OR OBSTRUCTIONS TO VISIBILITY.

NYZ071-072-176-178-NJZ106-104-202300-
NEW YORK CITY METRO AREA

CITY           SKY/WX    TMP DP  RH WIND       PRES   REMARKS
Central Park   CLEAR     52  10  18 N9        30.23R
Wall St Helipt NOT AVBL
LaGuardia APRT PTCLDY    54  15  21 N9        30.21R
Kennedy INTL   PTCLDY    53  13  20 NW13      30.21R
Breezy Point     N/A     50 N/A N/A NW12G17     N/A
Newark/Liberty PTCLDY    53   7  15 NW14G25   30.21R
Teterboro      CLEAR     53  12  19 NW12      30.21R
$$

NYZ177-179-078>081-202300-
LONG ISLAND NEW YORK

CITY           SKY/WX    TMP DP  RH WIND       PRES   REMARKS
Jones Beach      N/A     50 N/A N/A NE15        N/A
Matinecock PT    N/A     45 N/A N/A NE17        N/A
Farmingdale    CLEAR     50  13  22 N13       30.21R
MacArthur/ISP  PTCLDY    47  15  27 N12       30.21R
Shirley        CLEAR     47  18  31 N14       30.23R
Westhampton    CLEAR     47  15  27 NW13      30.22R
Southampton    NOT AVBL
Bridgehampton  NOT AVBL
East Hampton     N/A     44  21  40 N9        30.21R
Montauk          N/A     45  22  40 N6        30.22R
$$

NYZ052-065-067-202300-
HUDSON VALLEY

CITY           SKY/WX    TMP DP  RH WIND       PRES   REMARKS
White Plains   CLEAR     47  10  22 N15G21    30.21R
Newburgh       CLEAR     45  16  31 E14       30.25R
Montgomery     CLEAR     45  17  32 NE10      30.23R
Poughkeepsie   CLEAR     43  13  29 N10G18    30.26R
Albany         PTCLDY    40  17  39 NE10      30.32R WCI  33
$$

NJZ001-105-106-008-010-013-015-019>022-104-202300-
NEW JERSEY

CITY           SKY/WX    TMP DP  RH WIND       PRES   REMARKS
Newark/Liberty PTCLDY    53   7  15 NW14G25   30.21R
Teterboro      CLEAR     53  12  19 NW12      30.21R
Caldwell       CLEAR     52   7  16 N7        30.23R
Somerville     CLEAR     53   8  16 N9        30.21R
Linden         NOT AVBL
Sussex         CLEAR     48  11  22 NW8       30.23R
Andover          N/A     48   8  19 N10       30.23R
Trenton        CLEAR     54  17  23 N9        30.21R
Millville      CLEAR     56  27  32 N8        30.20R
Atlantic City  CLEAR     55  25  31 N14       30.19R
Wrightstown    CLEAR     54  21  27 NW10      30.18R
Toms River     CLEAR     54  22  28 NW9       30.21R
Belmar         CLEAR     53  12  19 NW18      30.21R
$$

PAZ047>061-062-071-202300-
EASTERN PENNSYLVANIA

CITY           SKY/WX    TMP DP  RH WIND       PRES   REMARKS
Philadelphia   PTCLDY    56  20  24 N15       30.22R
Allentown      CLEAR     52  17  25 NW15      30.23S
Scranton       CLEAR     46  13  26 N12       30.25S
$$

CTZ002-004>006-009-010-012-RIZ004-006-007-MAZ004-011-015-202300-
SOUTHERN NEW ENGLAND
 IN CT

CITY           SKY/WX    TMP DP  RH WIND       PRES   REMARKS
Bradley INTL   CLEAR     43  13  29 N10G22    30.24R
Hartford       CLEAR     45  15  30 N12       30.23R
Danbury        CLEAR     43  14  31 N14G22    30.25R
Wtrbury/Oxford CLEAR     43  12  28 N15       30.23R
Bridgeport     CLEAR     48  16  27 NW15      30.23R
Meriden        CLEAR     47  13  25 N8        30.23R
New Haven      CLEAR     46  14  27 NW10      30.22R
Chester          N/A     45  18  33 NW12      30.21R
Groton         CLEAR     46   8  21 N14       30.21R
Wilimantic     CLEAR     45   6  20 N12       30.22R

 IN RI

CITY           SKY/WX    TMP DP  RH WIND       PRES   REMARKS
Providence     CLEAR     43  13  29 N17       30.21R
Block Island   CLEAR     40  31  70 SE6       30.21R
Westerly       CLEAR     47   9  21 N12       30.21R
 IN MA

CITY           SKY/WX    TMP DP  RH WIND       PRES   REMARKS
Boston         PTCLDY    42  15  33 NW13G20   30.22R
Worcester      CLEAR     38   7  27 N13       30.20R WCI  30
Westfield      CLEAR     42  13  30 NW15G22   30.24R
Provincetown   CLEAR     39  25  57 N15       30.22R WCI  31
Nantucket      CLEAR     38  25  59 N15       30.19R WCI  29
$$

ANZ330-335-338-340-345-350-353-355-202300-
COASTAL MARINE OBSERVATIONS


STATION/POSITION TIME  SKY/WX   TEMP    WIND        PRES    VSBY  WAVE
                                AIR SEA DIR/SP/G                  HT/PER
                 (UTC)          (F)     (DEG/KT/KT) (MB)    (MI)  (FT/S)
NY HARB ENTRANCE 2050            48 44  300/ 10/ 10 1021.5          1/ 9
20 S FIRE ISLAND 2150            44 41  360/  6/  6 1022.6          1/ 9
GREAT SOUTH BAY  NOT AVBL
23 SSW MONTAUK P 2050            45 44              1021.9          2/ 8
15 E BARNEGAT LI 2130               43                N/A           2/ 8
HUDSON CANYON    2050               50              1021.2          4/ 5
KINGS POINT      2142            49 39              1022.8
EXECUTION ROCKS  NOT AVBL
CENTRAL LI SOUND 2115            44     320/ 10/ 14   N/A           1
EASTERN LI SOUND NOT AVBL
ROBBINS REEF     2142            52     350/ 12/ 18 1023.1
$$


>>>>>>>>>>>>>>>>>>>>>>>>>>>> KEY <<<<<<<<<<<<<<<<<<<<<<<<<<<
>                                                          <
>     SKY/WX - Sky Condition/Present Weather               <
>     TMP    - Temperature in Fahrenheit                   <
>     DP     - Dew Point in Fahrenheit                     <
>     RH     - Relative Humidity in Percent                <
>     WIND   - Direction (from) and Speed in MPH           <
>     PRES   - Mean Sea Level Pressure (inches of Hg)      <
>     WCI    - Wind Chill Index                            <
>     VSB    - VISIBILITY IN MILES                         <
>     HX     - HEAT INDEX                                  <
>     TC     - TEMPERATURE IN CELSIUS                      <
>     VRB    - VARIABLE WIND DIRECTION                     <
>                                                          <
>>>>>>>>>>>>>>>>>>>>>>>>>>>> KEY <<<<<<<<<<<<<<<<<<<<<<<<<<<




USA.gov is the U.S. government's official web portal to all federal, state and local government web resources and services.